www.pogodaiklimat.ru

ПОГОДА в Dedougou

  • Прогноз погоды в Dedougou
  • Монитор погоды в Dedougou
  • Климат города

АРХИВ ПОГОДЫ в Dedougou

Время (UTC), дата Ветер
(напр.,м/с)
 
Видим.   Явления Облачность Т
(С)
Тd
(С)
f
(%)
Тe
(С)
Тes
(С)
Комфортность P
(гПа)
Po
(гПа)
Тmin
(С)
Tmax
(С)
R
(мм)
S
(см)
18 9.01 СВ 2 15 км 9/0
[Ci sp]
+32.5 +1.9 14 +29 +29 жарко 1008.8 975.4 +36.0
21 9.01 СВ 1 10 км 8/0
[Ci sp]
+26.1 +4.6 25 +25 +25 комфорт 1011.6 977.9
00 10.01 СВ 3 10 км 9/0
[Ci sp]
+24.5 -2.1 17 +23 +23 комфорт 1011.2 977.9
03 10.01 СВ 1 10 км 9/0
[Ci sp]
+22.5 -2.1 19 +21 +21 комфорт 1010.0 976.7
06 10.01 штиль 0 10 км 9/0
[Ci sp]
+19.6 +0.8 28 +20 +20 1010.5 976.9 +19.2
09 10.01 СВ 2 15 км 8/0
[Ci sp]
+23.1 -3.8 16 +21 +26 комфорт 1012.3 978.5
12 10.01 СВ 2 15 км 6/0
[Ci sp]
+31.8 -5.5 9 +28 +41 жарко 1010.6 977.2
15 10.01 С 3 15 км 6/0
[Ci sp]
+34.0 -4.8 8 +30 +36 жарко 1007.6 974.3
18 10.01 С 1 15 км 8/0
[Ci sp]
+30.9 -3.4 11 +27 +27 жарко 1007.8 974.2 +35.0
21 10.01 СВ 1 10 км 8/0
[Ci sp]
+25.1 -0.7 18 +23 +23 комфорт 1009.8 976.0
00 11.01 штиль 0 10 км 8/0
[Ci sp]
+21.5 +0.1 24 +21 +21 комфорт 1009.7 976.2
03 11.01 штиль 0 10 км 8/0
[Ci sp]
+18.5 +2.5 34 +19 +19 1009.2 975.7
06 11.01 СВ 1 10 км 9/0
[Ac trans Ci sp]
+18.5 +2.5 34 +20 +20 1009.4 975.7 +17.9
09 11.01 СВ 2 15 км 9/0
[Ac trans Ci sp]
+21.5 -0.6 23 +21 +24 комфорт 1011.7 977.8
12 11.01 СВ 2 15 км 9/0
[Ac trans Ci sp]
+28.6 -2.3 13 +25 +34 комфорт 1010.8 977.1
15 11.01 штиль 0 15 км 9/0
[Ac trans Ci sp]
+29.7 -1.9 13 +27 +34 жарко 1009.0 975.2
18 11.01 штиль 0 15 км 9/0
[Ac trans Ci sp]
+28.8 +1.0 17 +27 +27 жарко 1009.4 975.6 +31.6
21 11.01 СВ 1 10 км 9/0
[Ac trans Ci sp]
+22.1 +0.2 23 +21 +21 комфорт 1011.5 977.4
00 12.01 С 2 10 км 9/0
[Ac trans Ci sp]
+19.8 -0.6 25 +20 +20 1011.7 977.8
03 12.01 С 2 10 км 9/0
[Ac trans Ci sp]
+16.5 -6.2 21 +17 +17 1010.6 976.7
06 12.01 СВ 1 10 км 8/0
[Ci sp]
+14.2 -9.1 19 +15 +15 1011.3 977.2 +14.0
09 12.01 СВ 4 15 км 4/0
[Ci sp]
+21.6 -11.6 10 +20 +24 1013.9 979.7
12 12.01 СВ 2 15 км 8/0
[Ci sp]
+29.0 -16.1 4 +25 +37 комфорт 1012.9 979.0
15 12.01 СЗ 2 15 км 4/0
[Ci sp]
+31.5 -4.7 9 +28 +35 жарко 1010.7 976.8
18 12.01 СЗ 2 15 км 6/0
[Ci sp]
+28.6 -4.6 11 +25 +25 комфорт 1011.6 977.5 +32.5
21 12.01 С 2 10 км 8/0
[Ci sp]
+23.8 -5.5 14 +22 +22 комфорт 1013.7 979.6
00 13.01 СВ 3 10 км 9/0
[Ci sp]
+21.7 -11.2 10 +20 +20 1013.2 979.4
03 13.01 СВ 3 10 км 9/0
[Ci sp]
+19.1 -6.8 17 +19 +19 1012.1 978.4
06 13.01 СВ 4 10 км 8/0
[Ci sp]
+18.0 -8.2 16 +18 +18 1013.0 979.0 +17.5
09 13.01 СВ 3 15 км 9/0
[Ci sp]
+18.5 -3.8 22 +19 +23 1016.0 981.7
12 13.01 СВ 5 15 км 9/0
[Ci sp]
+25.6 -2.1 16 +24 +30 комфорт 1014.2 980.2
15 13.01 СВ 3 15 км 9/0
[Ci sp]
+29.4 -3.2 12 +26 +32 жарко 1011.3 977.4
18 13.01 СВ 3 15 км 9/0
[Ci sp]
+27.5 -1.3 15 +25 +25 комфорт 1011.7 977.7 +30.0
21 13.01 СВ 4 10 км 9/0
[Ci sp]
+22.7 -1.6 20 +22 +22 комфорт 1013.4 979.1
00 14.01 СВ 4 10 км 8/0
[Ci sp]
+21.2 -2.1 21 +21 +21 комфорт 1013.1 979.2
03 14.01 СВ 3 10 км 8/0
[Ci sp]
+18.5 -0.9 27 +19 +19 1012.1 978.3
06 14.01 СВ 2 10 км 8/0
[Ci sp]
+16.6 -1.2 30 +17 +17 1012.3 978.2 +16.5
09 14.01 СВ 3 15 км 8/0
[Ci sp]
+20.5 -5.2 17 +20 +25 1013.6 979.4
12 14.01 В 3 15 км 6/0
[Ci sp]
+28.0 -4.8 11 +25 +36 комфорт 1012.0 978.2
15 14.01 СВ 2 15 км 6/0
[Ci sp]
+30.2 -1.9 12 +27 +34 жарко 1008.8 975.1
18 14.01 С 1 15 км 6/0
[Ci sp]
+28.7 -1.3 14 +26 +26 жарко 1009.0 975.1 +31.5
21 14.01 штиль 0 10 км 6/0
[Ci sp]
+22.6 +4.5 31 +23 +23 комфорт 1010.7 976.6
00 15.01 штиль 0 10 км 6/0
[Ci sp]
+19.5 +1.3 30 +20 +20 1011.1 977.2
03 15.01 СВ 1 10 км 6/0
[Ci sp]
+17.5 +0.8 32 +19 +19 1010.1 976.3
06 15.01 СВ 1 10 км 6/0
[Ci sp]
+17.0 -1.9 27 +18 +18 1010.3 976.3 +16.4
09 15.01 СВ 3 15 км 4/0
[Ci sp]
+23.0 -6.2 14 +21 +26 комфорт 1012.0 978.0
12 15.01 СВ 2 15 км 4/0
[Ci sp]
+29.4 -5.4 10 +26 +40 жарко 1010.9 977.1
15 15.01 В 2 15 км 4/0
[Ci sp]
+33.0 -2.6 10 +29 +37 жарко 1007.8 974.2
18 15.01 СВ 1 15 км 4/0
[Ci sp]
+31.0 +1.5 15 +28 +28 жарко 1008.5 974.7 +34.0
21 15.01 СВ 2 10 км 4/0
[Ci sp]
+25.2 +0.7 20 +24 +24 комфорт 1010.7 976.8
00 16.01 СВ 2 10 км 4/0
[Ci sp]
+23.0 -1.4 20 +22 +22 комфорт 1008.2 974.7
03 16.01 СВ 1 10 км 4/0
[Ci sp]
+21.0 -1.7 22 +22 +22 комфорт 1008.9 975.4
06 16.01 СВ 1 10 км 6/0
[Ac trans Ci sp]
+17.3 +2.7 38 +18 +18 1010.0 976.2 +17.0
09 16.01 СВ 2 15 км 6/0
[Ci sp]
+24.0 -5.4 14 +22 +28 комфорт 1012.1 978.3
12 16.01 СВ 2 15 км 6/0
[Ac trans Ci sp]
+31.5 -3.1 11 +28 +41 жарко 1010.2 976.7
15 16.01 СЗ 2 15 км 8/0
[Ac trans Ci sp]
+34.2 -2.5 9 +30 +36 жарко 1007.0 973.7

 

Местоположение метеостанции Dedougou (Буркина-Фасо): широта 12.47 долгота -3.48 высота над уровнем моря 300 м.

В архиве по умолчанию представлена погода в Dedougou за последнюю неделю. Архивные данные за месяц целиком и за предыдущие месяцы, начиная с января 2011 года, Вы можете получить, выбрав интересующий диапазон дат из раскрывающегося списка и нажав кнопку "Ввод!".

Внимание! Время в таблицах - всемирное. Для получения местного времени необходимо прибавить поправку, которая в Dedougou равна 0 ч.

Ветер - указаны скорость ветра в м/с - средняя за 10 мин, порывы в срок и между сроками (в фигурных скобках) и направление, откуда дует ветер: С - северный, СВ - северо-восточный, В - восточный, ЮВ - юго-восточный, Ю - южный, ЮЗ - юго-западный, З - западный, СЗ - северо-западный.
Видимость - горизонтальная дальность видимости в метрах или километрах. При видимости от 1 до 10 км при отсутствии осадков обычно наблюдается дымка, при ухудшении видимости до 1 км и менее - туман. В сухую погоду видимость может ухудшаться дымом, пылью или мглою.
Явления - указаны атмосферные явления, наблюдавшиеся в срок или в последний час перед сроком; фигурными скобками обозначены явления, наблюдавшиеся между сроками (за 1-3 часа до срока); квадратными скобками обозначены град или гололедные отложения с указанием их диаметра в мм.
Облачность - указаны через наклонную черту общая и нижняя облачность в баллах и высота нижней границы облаков в метрах; квадратными скобками обозначены формы облаков: Ci - перистые, Cs - перисто-слоистые, Cc - перисто-кучевые, Ac - высококучевые, As - высокослоистые, Sc - слоисто-кучевые, Ns - слоисто-дождевые, Cu - кучевые, Cb - кучево-дождевые. Подробнее классификацию облаков см. в Атласе облаков (PDF).
T - Температура воздуха - температура, измеренная на высоте 2 м над землей.
Td - Температура точки росы - температура, при понижении до которой содержащийся в воздухе водяной пар достигнет насыщения.
f - Относительная влажность воздуха - влажноcть воздуха, измеренная на высоте 2 м над землей.
Te - Эффективная температура - температура, которую ощущает одетый по сезону человек в тени. Характеристика душности погоды. При расчете учитывается влияние влажности воздуха и скорости ветра на теплоощущения человека.
Tes - Эффективная температура на солнце - температура, которую ощущает человек, с поправкой на солнечный нагрев. Характеристика знойности погоды. Зависит от высоты солнца над горизонтом, облачности и скорости ветра. Ночью, в пасмурную погоду, а также при ветре 12 м/с и более поправка равна нулю.
P - Атмосферное давление - приведенное к уровню моря атмосферное давление.
Po - Атмосферное давление - измеренное на уровне метеостанции атмосферное давление.
Tmin - Минимальная температура - минимум температуры воздуха на высоте 2 м над землей.
Tmax - Максимальная температура - максимум температуры воздуха на высоте 2 м над землей.
R - Количество осадков - Количество выпавших осадков, мм. При наведении курсора мыши на число - период времени, за который выпало указанное количество осадков.
S - Снежный покров - Высота снежного покрова, см. При наведении курсора мыши на число - состояние снежного покрова и степень покрытия местности в баллах.